Regional Weather Roundup
Issued by NWS Kansas City/Pleasant Hill, MO

Home | Current Version | Previous Version | Graphics & Text | Print | Product List | Glossary Off
Versions: 1 2 3 4 5 6 7 8 9 10 11 12 13 14 15 16 17 18 19 20 21 22 23 24 25 26 27 28 29 30 31 32 33 34 35 36 37 38 39 40 41 42 43 44 45 46 47 48 49 50

000
ASUS43 KEAX 010910
RWREAX

WEATHER ROUNDUP FOR EASTERN KANSAS AND NORTHWEST MISSOURI
NATIONAL WEATHER SERVICE KANSAS CITY/PLEASANT HILL MO
300 AM CST SUN FEB 01 2015

KSZ040-057-103>105-MOZ028-029-037-043-011000-
...KANSAS CITY METROPOLITAN AREA...

CITY           SKY/WX    TMP DP  RH WIND       PRES   REMARKS
K.C. INTL      LGT SNOW  33  33 100 S8        29.76F FOG     WCI  26
K.C. DOWNTOWN  FLURRIES  34  31  88 CALM      29.78F
LEES SUMMIT    LGT SNOW  33  32  96 S6        29.77F FOG     WCI  28
OLATHE - IXD   MIX PCPN  35  35 100 SE7       29.76F FOG     WCI  29
OLATHE - OJC   LGT RAIN  34  33  96 S7        29.75F FOG     WCI  28
LAWRENCE       LGT RAIN  33  32  96 E6        29.76F FOG     WCI  28

$$

MOZ001>008-011>017-020>025-030>033-038>040-044>046-053-054-011000-
...NORTHERN AND CENTRAL MISSOURI...

CITY           SKY/WX    TMP DP  RH WIND       PRES   REMARKS
ST. JOSEPH     LGT SNOW  32  32 100 CALM      29.78F FOG
MOSBY          LGT SNOW  32  32 100 CALM      29.79F
WARRENSBURG    LGT SNOW  32  32 100 SE7       29.80F WCI  26
WHITEMAN AFB   LGT SNOW  32  32 100 SE7       29.80F FOG     WCI  26
CLINTON        LGT RAIN  36  36 100 SE6       29.81F WCI  31
SEDALIA        LGT SNOW  33  32  96 SE9       29.82F FOG     WCI  25
WARSAW         NOT AVBL
MARSHALL       LGT SNOW  36  34  93 SE9       29.86F WCI  29
CHILLICOTHE      N/A     33  32  96 SE7       29.81F WCI  27
MOBERLY        LGT SNOW  34  30  86 SE10      29.85F WCI  26
KIRKSVILLE     SNOW      33  33 100 SE15      29.84F VSB 1/2 WCI  23

$$

MOZ041-047>049-056>058-063>065-088>090-097-011000-
...EASTERN AND SOUTHERN MISSOURI...

CITY           SKY/WX    TMP DP  RH WIND       PRES   REMARKS
ST. LOUIS INTL LGT RAIN  37  30  75 E7        29.92F FOG     WCI  32
SPIRIT OF STL  LGT RAIN  34  32  92 E3        29.89F FOG
COLUMBIA       LGT SNOW  33  33 100 E10       29.85F FOG     WCI  25
JEFFERSON CITY LGT RAIN  34  32  92 E7        29.87F FOG     WCI  28
ROLLA          RAIN      35  33  92 CALM      29.82F FOG
LEBANON        LGT SNOW  37  34  87 W3        29.82R
OSAGE BEACH    CLOUDY    36  32  87 NE3       29.84F
SPRINGFIELD    LGT RAIN  37  35  92 S8        29.79F FOG     WCI  31
BRANSON        RAIN      41  39  93 SE6       29.78F
NEVADA         LGT RAIN  37  37 100 SE3       29.80F
JOPLIN         LGT RAIN  40  39  97 MISG      29.79F FOG
WEST PLAINS    RAIN      37  30  75 S12       29.85F WCI  29

$$

IAZ060-094-KSZ022-034>040-054-083-096-NEZ052-066-093-011000-
...KANSAS...SOUTHEAST NEBRASKA AND IOWA...

CITY           SKY/WX    TMP DP  RH WIND       PRES   REMARKS
TOPEKA         LGT RAIN  33  32  96 E7        29.75F FOG     WCI  27
MANHATTAN      LGT RAIN  35  34  96 N5        29.74S FOG     WCI  31
EMPORIA        LGT RAIN  39  39 100 S10       29.72F WCI  32
CHANUTE        LGT RAIN  40  40 100 S8        29.77F FOG     WCI  34
WICHITA        CLOUDY    42  41  96 SW9       29.73F
OMAHA          LGT SNOW  33  32  96 NE5       29.82F VSB 1   WCI  29
LINCOLN        LGT SNOW  32  31  96 N9        29.81S FOG     WCI  24
FALLS CITY     LGT SNOW  32  31  96 CALM      29.77F VSB 3/4
LAMONI         LGT SNOW  32  32 100 SE6       29.79F FOG     WCI  26
DES MOINES     LGT SNOW  33  31  92 E7        29.84F FOG     WCI  27

$$




USA.gov is the U.S. government's official web portal to all federal, state and local government web resources and services.